[[{"header":{"parameterUnit":"m.s-1","parameterCategory":1,"la1":30.2991,"la2":30.254,"lo1":-89.0895,"lo2":-89.0444,"dy":0.0017,"dx":0.0017,"nx":28,"ny":28,"refTime":"2024-08-09T09:00:00:Z","depth":0,"parameterNumber":2,"parameterNumberName":"U-component_of_WINDS"},"data":[0,0,0,0,0,0,0,0,0,0,0,0,0,0,0,0,0,0,0,0,0,0,0,0,0,0,0,0,0,0,0,0,0,0,0,0,0,0,0,0,0,0,0,0,0,0,0,0,0,0,0,0,0,0,0,0,0,0,-0.9034,-0.9035,0,-0.911,-0.9111,-0.9112,-0.9093,-0.9092,-0.909,-0.9089,-0.9168,-0.9171,-0.9175,0,0,0,0,0,0,0,0,0,0,0,0,0,-0.8875,-0.8878,-0.9034,-0.9035,-0.9036,-0.911,-0.9111,-0.9112,-0.9093,-0.9092,-0.909,-0.9088,-0.9167,-0.9171,-0.9175,0,0,0,0,0,0,0,0,0,0,0,0,0,-0.8947,-0.8879,-0.9034,-0.9036,-0.9037,-0.911,-0.9111,-0.9112,-0.9094,-0.9092,-0.9089,-0.9087,-0.9165,-0.917,-0.9176,-0.9252,0,0,-0.9192,-0.9194,0,0,0,0,0,0,0,0,-0.8942,-0.8952,-0.9034,-0.9036,-0.9037,-0.909,-0.9084,-0.9159,-0.9094,-0.9072,-0.9089,-0.9086,-0.9144,-0.9151,-0.917,-0.9256,-0.9259,-0.9192,-0.9195,-0.9197,-0.9199,0,0,0,0,0,0,0,-0.8937,-0.8949,-0.9064,-0.9036,-0.9037,-0.9033,-0.9041,-0.9098,-0.912,-0.9074,-0.9073,-0.9082,-0.9144,-0.9165,-0.9172,-0.926,-0.9192,-0.9197,-0.92,-0.9202,-0.9414,-0.9416,0,0,0,0,0,0,-0.8931,-0.8945,-0.9062,-0.9066,-0.8983,-0.9038,-0.9046,-0.9075,-0.9119,-0.9123,-0.9084,-0.9081,-0.9157,-0.9165,-0.9174,-0.9268,-0.9197,-0.9202,-0.9205,-0.9411,-0.9415,-0.9417,0,0,0,0,0,0,-0.8928,-0.8942,-0.9059,-0.9005,-0.902,-0.9043,-0.9075,-0.9078,-0.9099,-0.9126,-0.913,-0.9101,-0.9156,-0.9167,-0.9233,-0.927,-0.9205,-0.9209,-0.9409,-0.9412,-0.9416,-0.9455,0,0,0,0,0,0,-0.8923,-0.8941,-0.897,-0.9006,-0.9023,-0.9116,-0.9077,-0.9081,-0.9107,-0.9104,-0.9143,-0.9148,-0.9155,-0.9225,-0.9238,-0.9276,-0.9214,-0.9405,-0.941,-0.9415,-0.945,-0.9459,-0.9467,0,0,0,0,0,-0.8918,-0.8978,-0.8972,-0.8986,-0.906,-0.9118,-0.9128,-0.9134,-0.911,-0.914,-0.9158,-0.9147,-0.9264,-0.9232,-0.9247,-0.9287,-0.9403,-0.9409,-0.9414,-0.9446,-0.9458,-0.9467,0,0,0,0,0,0,-0.8946,-0.8983,-0.8976,-0.905,-0.9081,-0.9115,-0.9153,-0.9146,-0.9185,-0.918,-0.9187,-0.9196,-0.9263,-0.9281,-0.9246,-0.9363,-0.933,-0.9339,-0.935,-0.936,-0.9368,-0.9363,-0.9218,0,0,0,0,0,-0.8961,-0.9005,-0.9034,-0.9097,-0.9113,-0.913,-0.9156,-0.9158,-0.9191,-0.9204,-0.9227,-0.9259,-0.9303,-0.9333,-0.9375,-0.9452,-0.9461,-0.9487,-0.9495,-0.9502,-0.951,-0.9553,-0.9565,-0.9436,-0.9436,-0.9436,0,0,-0.8992,-0.9017,-0.9045,-0.9103,-0.9127,-0.9174,-0.9141,-0.9191,-0.9226,-0.9212,-0.9276,-0.9293,-0.933,-0.9403,-0.9436,-0.942,-0.9547,-0.9509,-0.9514,-0.9519,-0.956,-0.9572,-0.9583,-0.944,-0.9439,-0.9438,0,0,-0.9072,-0.9095,-0.915,-0.9175,-0.9212,-0.9223,-0.9236,-0.9272,-0.9283,-0.9347,-0.9338,-0.9379,-0.9454,-0.9481,-0.9505,-0.9595,-0.9587,-0.9609,-0.9653,-0.9695,-0.9706,-0.9715,-0.9748,-0.976,-0.9616,-0.9616,-0.9616,0,-0.9106,-0.9175,-0.9179,-0.923,-0.9256,-0.9245,-0.9301,-0.9325,-0.9374,-0.9393,-0.9374,-0.9469,-0.9493,-0.9572,-0.9594,-0.9613,-0.9629,-0.9605,-0.9704,-0.9713,-0.9721,-0.9753,-0.9766,-0.9619,-0.9619,-0.9618,-0.9618,0,-0.9215,-0.9263,-0.9303,-0.9351,-0.9381,-0.9434,-0.9447,-0.9478,-0.9477,-0.949,-0.9556,-0.9584,-0.9632,-0.965,-0.965,-0.973,-0.9719,-0.9702,-0.9669,-0.9736,-0.9767,-0.9779,-0.9623,-0.9622,-0.9621,-0.962,0,0,-0.9317,-0.9366,-0.9381,-0.9402,-0.9443,-0.948,-0.9532,-0.9579,-0.9606,-0.964,-0.9685,-0.9749,-0.9733,-0.976,-0.9763,-0.9799,-0.987,-0.9778,-0.9779,-0.9795,-0.9961,-0.9975,-0.9989,-0.9864,-0.9866,-0.9868,-0.9958,0,-0.9402,-0.9495,-0.95,-0.9584,-0.9629,-0.9619,-0.9665,-0.9695,-0.9708,-0.9748,-0.9763,-0.9809,-0.9784,-0.9801,-0.9836,-0.9854,-0.9904,-0.9848,-0.9907,-0.9909,-0.99,-1.0004,-1.0019,-1.0103,-0.997,-0.9972,-0.9973,0,-0.9514,-0.9551,-0.964,-0.9674,-0.9693,-0.9735,-0.9778,-0.9816,-0.985,-0.9857,-0.9887,-0.9884,-0.9939,-0.9902,-0.9978,-0.994,-0.9964,-0.9977,-0.998,-0.9987,-0.9947,-1.0016,-1.0129,-1.0143,-0.9992,-0.999,-0.9989,0,-0.9581,-0.9653,-0.9716,-0.9735,-0.9776,-0.9805,-0.9824,-0.9855,-0.9883,-0.9921,-0.9939,-0.9982,-1.0007,-1.0041,-1.005,-1.0023,-1.0126,-1.009,-1.0135,-1.0135,-1.0159,-1.0157,-1.0279,-1.0172,-1.0172,-1.0171,-1.0171,0,-0.9676,-0.9731,-0.9747,-0.9786,-0.9847,-0.9852,-0.9913,-0.993,-0.9958,-1.0,-0.9993,-1.0033,-1.0042,-1.0084,-1.0092,-1.0154,-1.0165,-1.0173,-1.0175,-1.0175,-1.0174,-1.0192,-1.0187,-1.0175,-1.0174,-1.0173,-1.0173,0,-0.9762,-0.9774,-0.9842,-0.9875,-0.9885,-0.9929,-0.9958,-0.9995,-1.0007,-1.0061,-1.0074,-1.0093,-1.0142,-1.0154,-1.0213,-1.0218,-1.0292,-1.0287,-1.0281,-1.0281,-1.0325,-1.0321,-1.0465,-1.0484,-1.0362,-1.0363,-1.0364,0,-0.9823,-0.9865,-0.9902,-0.993,-0.995,-0.9994,-1.0023,-1.0029,-1.0059,-1.0101,-1.0133,-1.0181,-1.022,-1.0299,-1.0318,-1.0363,-1.036,-1.0407,-1.0367,-1.0366,-1.0363,-1.0361,-1.0366,-1.0416,-1.0417,-1.0418,-1.0419,0,-0.993,-0.9934,-0.9975,-1.0018,-1.0052,-1.0086,-1.0119,-1.0142,-1.0153,-1.0187,-1.0237,-1.0267,-1.0326,-1.0374,-1.0419,-1.0438,-1.0431,-1.0431,-1.0444,-1.0445,-1.044,-1.0445,-1.0303,-1.0428,-1.0427,-1.0426,-1.0426,-1.0426,-1.0006,-1.0043,-1.0076,-1.0122,-1.0147,-1.0178,-1.0215,-1.0231,-1.0273,-1.0322,-1.0323,-1.0377,-1.041,-1.047,-1.0492,-1.0535,-1.052,-1.0539,-1.0544,-1.0549,-1.0553,-1.0432,-1.0542,-1.0542,-1.0542,-1.0542,-1.0542,0,-1.0114,-1.0134,-1.0176,-1.0222,-1.0259,-1.0247,-1.0283,-1.0314,-1.0362,-1.0393,-1.0431,-1.0489,-1.0535,-1.0558,-1.0604,-1.0634,-1.0632,-1.0646,-1.0645,-1.065,-1.0562,-1.0547,-1.0647,-1.0647,-1.0647,-1.0647,-1.0647,-1.0647,-1.0175,-1.0238,-1.0245,-1.0321,-1.0341,-1.0394,-1.0415,-1.0444,-1.0469,-1.0533,-1.0572,-1.0586,-1.0614,-1.0662,-1.0704,-1.071,-1.0728,-1.0744,-1.0748,-1.0667,-1.0656,-1.0646,-1.0632,-1.0748,-1.0748,-1.0832,-1.0833,-1.0834]},{"header":{"parameterUnit":"m.s-1","parameterCategory":1,"la1":30.2991,"la2":30.254,"lo1":-89.0895,"lo2":-89.0444,"dy":0.0017,"dx":0.0017,"nx":28,"ny":28,"refTime":"2024-08-09T09:00:00:Z","depth":0,"parameterNumber":3,"parameterNumberName":"V-component_of_WINDS"},"data":[0,0,0,0,0,0,0,0,0,0,0,0,0,0,0,0,0,0,0,0,0,0,0,0,0,0,0,0,0,0,0,0,0,0,0,0,0,0,0,0,0,0,0,0,0,0,0,0,0,0,0,0,0,0,0,0,0,0,-4.235,-4.2351,0,-4.2425,-4.2425,-4.2426,-4.2362,-4.2359,-4.2356,-4.2354,-4.2427,-4.2431,-4.2435,0,0,0,0,0,0,0,0,0,0,0,0,0,-4.2146,-4.2151,-4.235,-4.2351,-4.2352,-4.2424,-4.2425,-4.2426,-4.2362,-4.2359,-4.2356,-4.2353,-4.2425,-4.243,-4.2436,0,0,0,0,0,0,0,0,0,0,0,0,0,-4.2229,-4.2152,-4.2349,-4.2328,-4.2327,-4.2424,-4.2426,-4.2427,-4.2363,-4.2359,-4.2355,-4.2351,-4.2423,-4.243,-4.2436,-4.2557,0,0,-4.2457,-4.246,0,0,0,0,0,0,0,0,-4.2225,-4.2237,-4.233,-4.233,-4.2329,-4.238,-4.238,-4.247,-4.2364,-4.2349,-4.2354,-4.2349,-4.2414,-4.2421,-4.2444,-4.2561,-4.2564,-4.2457,-4.2461,-4.2464,-4.2466,0,0,0,0,0,0,0,-4.2219,-4.2233,-4.2379,-4.2332,-4.2331,-4.2314,-4.2321,-4.2397,-4.2403,-4.235,-4.2346,-4.2356,-4.2413,-4.2438,-4.2445,-4.2565,-4.2457,-4.2463,-4.2467,-4.247,-4.2783,-4.2788,0,0,0,0,0,0,-4.2216,-4.2229,-4.2377,-4.2381,-4.2266,-4.232,-4.2329,-4.2367,-4.2402,-4.2403,-4.2359,-4.2352,-4.2428,-4.2437,-4.2447,-4.2591,-4.2464,-4.247,-4.2474,-4.2779,-4.2784,-4.2789,0,0,0,0,0,0,-4.2212,-4.223,-4.2374,-4.2304,-4.2321,-4.2328,-4.2372,-4.2371,-4.2396,-4.2409,-4.2409,-4.2384,-4.2425,-4.2438,-4.253,-4.2592,-4.2473,-4.2479,-4.2774,-4.2781,-4.2787,-4.2879,0,0,0,0,0,0,-4.2206,-4.2229,-4.2276,-4.2306,-4.2325,-4.2457,-4.2376,-4.2375,-4.2408,-4.24,-4.2432,-4.2433,-4.2423,-4.2521,-4.2537,-4.2599,-4.2485,-4.2768,-4.2777,-4.2785,-4.2871,-4.2888,-4.2903,0,0,0,0,0,-4.2199,-4.2298,-4.2279,-4.2297,-4.2384,-4.2461,-4.2472,-4.246,-4.2413,-4.246,-4.2468,-4.2432,-4.2583,-4.2531,-4.2549,-4.2614,-4.2764,-4.2775,-4.2784,-4.2863,-4.2885,-4.2903,0,0,0,0,0,0,-4.2274,-4.2302,-4.228,-4.2392,-4.2425,-4.245,-4.2509,-4.2483,-4.2528,-4.2519,-4.25,-4.2508,-4.2605,-4.2618,-4.256,-4.2732,-4.2666,-4.268,-4.272,-4.2741,-4.2756,-4.2751,-4.249,0,0,0,0,0,-4.2304,-4.2366,-4.2385,-4.2482,-4.25,-4.2502,-4.2534,-4.2522,-4.2555,-4.2568,-4.2583,-4.2615,-4.2669,-4.2705,-4.2756,-4.2872,-4.2877,-4.2925,-4.2941,-4.2955,-4.2967,-4.3028,-4.305,-4.2821,-4.2821,-4.2821,0,0,-4.2366,-4.2388,-4.2428,-4.2498,-4.2522,-4.2584,-4.2514,-4.2583,-4.2629,-4.2578,-4.2667,-4.2679,-4.2713,-4.2818,-4.2864,-4.2831,-4.3031,-4.2967,-4.2978,-4.2983,-4.3041,-4.3062,-4.3082,-4.2828,-4.2827,-4.2826,0,0,-4.251,-4.2534,-4.2617,-4.2643,-4.268,-4.2681,-4.2701,-4.273,-4.2736,-4.2825,-4.2788,-4.2841,-4.2936,-4.2962,-4.2987,-4.3141,-4.311,-4.3158,-4.3243,-4.3303,-4.3321,-4.3337,-4.3392,-4.3411,-4.317,-4.317,-4.317,0,-4.2582,-4.2677,-4.2662,-4.2735,-4.2766,-4.2724,-4.2807,-4.2832,-4.2884,-4.2906,-4.2869,-4.2986,-4.3006,-4.3116,-4.3154,-4.3176,-4.3197,-4.3155,-4.332,-4.3336,-4.335,-4.3402,-4.3423,-4.3176,-4.3175,-4.3175,-4.3174,0,-4.2763,-4.2829,-4.2891,-4.2944,-4.2982,-4.3059,-4.3055,-4.3095,-4.3079,-4.3083,-4.3174,-4.3196,-4.3251,-4.3276,-4.326,-4.3383,-4.3362,-4.3323,-4.3256,-4.3378,-4.3426,-4.3446,-4.3184,-4.3182,-4.318,-4.3179,0,0,-4.2957,-4.3001,-4.3024,-4.3048,-4.3086,-4.3136,-4.321,-4.3265,-4.3299,-4.3336,-4.3398,-4.3478,-4.3442,-4.3471,-4.3458,-4.3511,-4.3631,-4.3465,-4.3465,-4.3495,-4.3768,-4.3797,-4.3821,-4.361,-4.3614,-4.3617,-4.3765,0,-4.3104,-4.3236,-4.3225,-4.3349,-4.3409,-4.337,-4.3434,-4.3464,-4.347,-4.352,-4.3525,-4.3583,-4.3531,-4.3548,-4.3599,-4.3606,-4.3686,-4.3595,-4.3667,-4.3669,-4.366,-4.3846,-4.3878,-4.4016,-4.3783,-4.3787,-4.3789,0,-4.3292,-4.3337,-4.3468,-4.3497,-4.3522,-4.3581,-4.3629,-4.3679,-4.3711,-4.3711,-4.3743,-4.3721,-4.3795,-4.3726,-4.3827,-4.3766,-4.3794,-4.3802,-4.3807,-4.3813,-4.3737,-4.3858,-4.406,-4.4081,-4.3819,-4.3816,-4.3814,0,-4.3422,-4.3514,-4.3605,-4.3625,-4.3661,-4.3703,-4.372,-4.3748,-4.3782,-4.3824,-4.3845,-4.3894,-4.3922,-4.396,-4.3951,-4.3902,-4.4054,-4.3984,-4.4055,-4.4056,-4.4089,-4.4087,-4.4299,-4.4107,-4.4107,-4.4107,-4.4106,0,-4.3586,-4.3668,-4.3663,-4.3719,-4.3808,-4.3794,-4.3883,-4.3894,-4.3919,-4.3975,-4.3943,-4.3996,-4.3981,-4.4032,-4.4026,-4.411,-4.4122,-4.4124,-4.4121,-4.4127,-4.4127,-4.4145,-4.4136,-4.4112,-4.4111,-4.411,-4.4109,0,-4.3746,-4.3746,-4.3842,-4.3868,-4.3876,-4.3941,-4.3963,-4.4015,-4.4017,-4.4088,-4.4104,-4.4108,-4.4167,-4.4162,-4.4228,-4.4223,-4.4327,-4.4313,-4.4317,-4.4314,-4.4385,-4.4379,-4.4617,-4.4647,-4.4435,-4.4437,-4.4439,0,-4.3852,-4.3914,-4.3947,-4.3983,-4.4002,-4.406,-4.4094,-4.4082,-4.4119,-4.416,-4.4206,-4.4263,-4.4307,-4.4403,-4.4411,-4.4461,-4.4448,-4.4528,-4.4455,-4.4459,-4.4449,-4.4446,-4.4452,-4.4542,-4.4544,-4.4546,-4.4548,0,-4.4039,-4.4036,-4.4087,-4.4139,-4.4181,-4.422,-4.4256,-4.4287,-4.4278,-4.432,-4.4381,-4.4416,-4.4484,-4.454,-4.4587,-4.4602,-4.4574,-4.4571,-4.459,-4.4597,-4.4597,-4.4598,-4.4357,-4.4565,-4.4564,-4.4562,-4.4561,-4.4561,-4.4175,-4.4228,-4.426,-4.4318,-4.4344,-4.4378,-4.4428,-4.4437,-4.4488,-4.4543,-4.4532,-4.4601,-4.463,-4.4691,-4.4711,-4.4763,-4.4734,-4.4761,-4.4768,-4.4775,-4.4784,-4.4588,-4.4771,-4.4771,-4.477,-4.477,-4.4769,0,-4.436,-4.4379,-4.4432,-4.4484,-4.453,-4.45,-4.4538,-4.4577,-4.4638,-4.4669,-4.4713,-4.4783,-4.4837,-4.4849,-4.49,-4.494,-4.4928,-4.4954,-4.4951,-4.4955,-4.4807,-4.4785,-4.4962,-4.4962,-4.4962,-4.4962,-4.4962,-4.4962,-4.4463,-4.4551,-4.4552,-4.4652,-4.4669,-4.4737,-4.4761,-4.4792,-4.4816,-4.4896,-4.4941,-4.4949,-4.4972,-4.5024,-4.5072,-4.5074,-4.5095,-4.5126,-4.5123,-4.4984,-4.4965,-4.4947,-4.4926,-4.513,-4.5131,-4.5266,-4.5267,-4.5268]}]]